Baseball 板


LINE

台钢雄鹰 坎南 IP:5 2/3 NP :87(50-37) R:3 ER:3 H:5 HR:0 K:5 BB:4 ERA:4.76 WHIP:1.59 转队後面对老东家的坎南 前五局顺风顺水没有失分 第六局面对邦邦中心打线出状况 安打、保送及暴投 加上孔念恩适时的二垒安打 一局丢掉三分 最後台钢虽然在九下还有打回分数 但还是没能逆转战局 吞下败投 台钢雄鹰 韦宏亮 IP:0 2/3 NP :26(15-11) R:3 ER:3 H:3 HR:0 K:0 BB:1 ERA:13.50 WHIP:3.00 在第九局上三分落後局面上场投球的状元韦宏亮 与戴培峰对决八颗球送出保送 下一棒短打推进之後 虽然成功解决林岳谷 接着却被周佳乐、张育成、范国宸连续击出安打 其中张育成的二垒安打有两分打点 而范国宸的一垒安打再攻一分 同时也把韦宏亮打退场换上王跃霖 最终今日的投球留下2/3局失三分的纪录 --



※ 发信站: 批踢踢实业坊(ptt.cc), 来自: 101.10.2.150 (台湾)
※ 文章网址: https://webptt.com/cn.aspx?n=bbs/Baseball/M.1775828890.A.74A.html
1F:推 bower1025: 韦超烂04/10 21:48
※ 编辑: hsuaninteen (101.10.2.150 台湾), 04/10/2026 21:48:31
2F:嘘 melman87: https://i.mopix.cc/5Up5A4.jpg 04/10 21:48
3F:→ hcastray: 不 坎南 04/10 21:48
4F:推 furret: 在红中手下当牛保重捏 04/10 21:48
5F:→ melman87: 很爱玩嘛 04/10 21:48
6F:→ ash9911911: 今天比较像被60雷到 不会接曲球 04/10 21:48
7F:→ turkiali01: 有点自觉的话 自请下二军吧..... 04/10 21:48
8F:→ hao94: 红中再爽啊 04/10 21:49
9F:推 tom80114: 打爆坎南换布坎南 04/10 21:49
10F:推 frozenmoon: 不 坎南 04/10 21:49
11F:推 Gnnnnn111: 爽啦 04/10 21:49
12F:推 pigniposhen: 化布坎南为坎南 赞啦~ 04/10 21:49
13F:推 NoEric: 去年邦棒打罗戈就示范了第一场不要投老东家 04/10 21:49
14F:推 xptx: WHIP 3.00 04/10 21:49
15F:→ s22shadowl: 坎南小衰 04/10 21:49
16F:→ shizukun0103: 红中:不!坎南 04/10 21:49
17F:→ kji590929: 被捕手雷吧 04/10 21:49
18F:推 agan232002: 爽拉 04/10 21:49
19F:→ hao94: https://i.mopix.cc/RXjJQU.jpg 04/10 21:49
20F:→ Puye: 那局60号在搞吧 一直漏 04/10 21:49
21F:→ justyesung: 难怪人家邦邦不要你QQ 04/10 21:49
22F:推 usuar: 捕手也有点….. 04/10 21:50
23F:推 ricky9696: 嘻嘻,不是很会化布坎南会坎南 04/10 21:50
24F:→ LuLin28: 爽啦 查无不法 嘻嘻 04/10 21:50
25F:推 d8916780: 韦这个业余球王,在二军应该也站不稳 04/10 21:50
26F:→ nuturewind: 状元的打击率好强 04/10 21:50
27F:→ hunterhsu91: 天罚 04/10 21:50
28F:推 ohiyo104: 不! 坎南 04/10 21:50
29F:推 pie164: 不坎南! 04/10 21:50
30F:→ hy654: 南哥也是蛮虽的 被自家总欸雷 04/10 21:50
31F:推 Currice6677: #化布坎南为坎南 04/10 21:50
32F:→ macair: 60一次搞崩两个 04/10 21:50
33F:推 sam830219: 抱歉不难 04/10 21:50
34F:推 AceClown: 台钢去年为了win now选这只,根本笑死 04/10 21:51
35F:推 Dubufan0528: 查无不法 04/10 21:51
36F:推 huahuatmu: 赢背骨仔 舒服~ 04/10 21:51
37F:→ hao94: 变南崁难看罗 04/10 21:51
38F:→ z030060374: 坎南投1休4可怜喔 04/10 21:51
39F:→ nuturewind: 台钢小编这个算是赢人还要赢话後的现世报吗xd 04/10 21:51
40F:→ caseywvt: 富邦不要的 哈哈哈 04/10 21:51
41F:→ n10617: 坎南:来之前怎麽没先说你们没有捕手可以接我的球…? 04/10 21:51
42F:推 pink0518: 爽 04/10 21:51
43F:推 z910085zx: 正义必胜 04/10 21:51
44F:→ ash9911911: 去年没选小宝说不定今年爆掉的是新一喔 04/10 21:51
45F:推 STTKK: 红中:爽啦 04/10 21:51
46F:推 aimee51126: 是说罗戈转队首战对前东家也是吞败啦 04/10 21:52
47F:推 wasata: 台钢选这只干嘛 浪费钱 04/10 21:52
48F:推 GakkiMyWife: 去台钢真的惨 韦高机率养坏 04/10 21:52
49F:推 wolfgofff: 不 坎南了 04/10 21:52
50F:→ hy654: 坎南哪算北骨 是富邦不要他的吧 04/10 21:52
51F:推 QQcandyQQ: 天罚 04/10 21:52
52F:推 jocabyu: 惨,状元发球机 04/10 21:52
53F:→ GakkiMyWife: 还不下去二军练练 04/10 21:52
54F:推 Adlem: 韦可以下去了 目前看来是最糟的 04/10 21:52
55F:推 lovelife9999: 不 坎南 04/10 21:53
56F:→ aimee51126: 韦再这样下去变下个55 04/10 21:53
57F:推 FirePopcorn: 五局赛扬 04/10 21:54
58F:推 virginmary: 60的锅 04/10 21:54
59F:推 cake10414: 把不可能变 04/10 21:54
60F:→ alonzohorse: 爽啊打爆叛徒 04/10 21:54
61F:推 cdojth590216: 3.00 era还行吧 什麽那是whip 04/10 21:54
62F:推 ewing7517: 台钢出产发球机 品质超甜 04/10 21:54
63F:推 ring331amy97: 韦烂爆,怎麽不下二军,每次看他都一肚子火 04/10 21:54
64F:推 fairymomo: 沟皂 04/10 21:55
65F:推 aazhong: 嘻嘻 继续玩梗阿 04/10 21:55
66F:→ Puye: 韦还是下去练练 感觉现在只适合当败处 04/10 21:55
67F:→ wolfgofff: 韦快点交易出去换一袋球吧 04/10 21:55
68F:推 passbyks: 史上最水状元? 04/10 21:56
69F:→ wolfgofff: 球都比你有用多了 04/10 21:56
70F:推 roceskate: 布坎南! 绝对布坎南! 04/10 21:56
71F:推 flytk: 正义 04/10 21:56
72F:推 A820130: 韦状元是去年选来温闹的,时机过了可以下二军磨练了吧 04/10 21:57
73F:推 wolfgofff: 去年温闹 今年来闹的 04/10 21:58
74F:推 hinesika: 真的坎南了嘻嘻 04/10 21:58
75F:推 Adlem: 坦白说对坎南蛮失望 本来以为可以改更有趣的译名 04/10 21:58
76F:→ z910085zx: 看看这状元 再看看石子霖 是谁放枪? 04/10 21:59
77F:→ ericlou: 啾玩谐音梗玩的很爽 04/10 22:00
78F:推 NewPacers: 这款状元????? 04/10 22:01
79F:推 Diomedes: 让坎南投1休4,结果在第6局没力爆开,红中神调度 04/10 22:01
80F:推 PCC2003: 状元也太惨了吧 04/10 22:02
81F:推 aimee51126: 第六局捕手问题更大吧 他原本投得好好的 04/10 22:02
82F:→ NoEric: 扣掉打假球的应该可以拼最水状元 04/10 22:03
83F:推 zxcv4321: 查无不法 04/10 22:05
84F:推 supisces: 总结的不错 04/10 22:05
85F:推 danman: 富邦悍将打赢富邦叛将 04/10 22:06
86F:推 zeze6666: 爽 正义必胜 04/10 22:07
87F:推 yeeandrew: 打爆他啦 X 04/10 22:11
88F:推 arexne: 红中选人眼光就有问题 04/10 22:13
89F:→ koye: 水状元真不意外 04/10 22:14
90F:→ MoWilliams: 正义必胜 04/10 22:16
91F:→ roberttony: 舒服 有够舒服 04/10 22:18
92F:推 AuroraSkyFox: 小宝能不能丢下去再练练啊 看他投真的是...唉 04/10 22:19
93F:推 rich780501: 嘻嘻 04/10 22:24
94F:推 amos30627: 韦还不下去 不愧是红中 04/10 22:28
95F:推 fugitive24: 正义必胜 希望横扫 04/10 22:28
96F:→ roberttony: 韦是大社 选他不是要练的吧 04/10 22:38
97F:推 ktoaoeex: 用状元签拿他 感觉颇亏的 04/10 22:46
98F:→ aimee51126: 大社也有分年纪吧 他也才比高卒晚一年而已 04/10 23:04
99F:推 aimee51126: 都不下去二军练一直操 是要跟爪那两个大社牛一样? 04/10 23:06
100F:→ aimee51126: 刚进来程度还不错 但是没有养成一直操 後面就烂掉 04/10 23:06
101F:→ ash9911911: 说真的骂台钢就算了 邦自己不续签骂人家叛将就过分了 04/10 23:08
102F:推 aimee51126: 罗戈比较符合叛将定义 因为邦有想签 他自己想走 04/10 23:10
103F:→ angel902037: 富邦不续约就失业了..... 04/10 23:10
104F:→ aimee51126: 但哪一个都一样 首战对前东家都吞败哈哈 04/10 23:10
105F:→ angel902037: 罗戈是富邦还在跟他讨价还价,结果人家出价更高 04/10 23:11
106F:推 MoWilliams: 看脆上邦迷超气台钢的,这场赢还是继续鞭 04/10 23:15
107F:推 vic4807: 状元加油啊 04/10 23:23
108F:→ jk2233: 还有要求抵制跟解散的 04/10 23:24
109F:→ ash9911911: 哪边都有神经病阿 这边不是也有骂南蛮跟五队公敌的 04/10 23:25
110F:→ jk2233: 然後往往都是最关注的,一点风吹草动都不放过 04/10 23:29
111F:推 pink0518: 不讨厌布坎南 是讨厌违规还要那麽高调的那位 04/10 23:34
112F:推 yangrl: 爽啦 04/10 23:53
113F:推 kevin9964: 假货 04/11 00:21
114F:推 poor147: 富邦不要他跟台钢偷跑有什麽关系?当规定是放屁 还想赢 04/11 00:23
115F:→ poor147: 话 04/11 00:23
116F:→ jk2233: 那个是指 是富邦不要他所以没必要叫他叛将 04/11 00:30
117F:推 prkfcpr: 说叛将就多了,得了便宜还卖乖的是台钢球团 04/11 00:51
118F:推 Crissangel: 对坎南本人没意见啊 04/11 01:15
119F:嘘 mit1614: 韦 真的烂 04/11 01:48
120F:嘘 settier: 再玩啊 04/11 05:28
121F:推 sam30292002: 天罚 04/11 06:54
122F:嘘 zxcv4321: 天罚 04/11 07:07
123F:推 t505172003: 天罚 04/11 10:42







like.gif 您可能会有兴趣的文章
icon.png[问题/行为] 猫晚上进房间会不会有憋尿问题
icon.pngRe: [闲聊] 选了错误的女孩成为魔法少女 XDDDDDDDDDD
icon.png[正妹] 瑞典 一张
icon.png[心得] EMS高领长版毛衣.墨小楼MC1002
icon.png[分享] 丹龙隔热纸GE55+33+22
icon.png[问题] 清洗洗衣机
icon.png[寻物] 窗台下的空间
icon.png[闲聊] 双极の女神1 木魔爵
icon.png[售车] 新竹 1997 march 1297cc 白色 四门
icon.png[讨论] 能从照片感受到摄影者心情吗
icon.png[狂贺] 贺贺贺贺 贺!岛村卯月!总选举NO.1
icon.png[难过] 羡慕白皮肤的女生
icon.png阅读文章
icon.png[黑特]
icon.png[问题] SBK S1安装於安全帽位置
icon.png[分享] 旧woo100绝版开箱!!
icon.pngRe: [无言] 关於小包卫生纸
icon.png[开箱] E5-2683V3 RX480Strix 快睿C1 简单测试
icon.png[心得] 苍の海贼龙 地狱 执行者16PT
icon.png[售车] 1999年Virage iO 1.8EXi
icon.png[心得] 挑战33 LV10 狮子座pt solo
icon.png[闲聊] 手把手教你不被桶之新手主购教学
icon.png[分享] Civic Type R 量产版官方照无预警流出
icon.png[售车] Golf 4 2.0 银色 自排
icon.png[出售] Graco提篮汽座(有底座)2000元诚可议
icon.png[问题] 请问补牙材质掉了还能再补吗?(台中半年内
icon.png[问题] 44th 单曲 生写竟然都给重复的啊啊!
icon.png[心得] 华南红卡/icash 核卡
icon.png[问题] 拔牙矫正这样正常吗
icon.png[赠送] 老莫高业 初业 102年版
icon.png[情报] 三大行动支付 本季掀战火
icon.png[宝宝] 博客来Amos水蜡笔5/1特价五折
icon.pngRe: [心得] 新鲜人一些面试分享
icon.png[心得] 苍の海贼龙 地狱 麒麟25PT
icon.pngRe: [闲聊] (君の名は。雷慎入) 君名二创漫画翻译
icon.pngRe: [闲聊] OGN中场影片:失踪人口局 (英文字幕)
icon.png[问题] 台湾大哥大4G讯号差
icon.png[出售] [全国]全新千寻侘草LED灯, 水草

请输入看板名称,例如:WOW站内搜寻

TOP